Вернуться в каталог

THORAD DELTA 1 DEB

LostSSO
NORAD 42609·DEBRIS·🇺🇸 United States

Запущен Nov 15, 1974 с Vandenberg Space Force Base

Loading…

Ближайшие Пролёты (ближайшие 24 часа)

TLE

УстаревшееSource: Space-Track

Эпоха: Aug 27, 2024, 03:21 UTC

1 42609U 74089GA  24240.14005280  .00000524  00000-0  29498-2 0  9996
2 42609 101.2961 209.7583 0052511 324.1742  35.5822 12.67306849497634

Отслеживайте THORAD DELTA 1 DEB в реальном времени с AllMySat

Download on the App Store